This demonstration page uses our WeatherBlox Daily Observations layout. Learn more.

Left ArrowRight Arrow

Hourly Observations for January 16, 2020

Temp ( °F °C ) Dew Point ( °F °C ) Humidity (%) Winds ( mph kmh ) Pressure ( in mb ) Visibility ( mi km ) Precip ( " mm )
12:53 am 00:53 Cloudy 64 17.8 62 16.7 93 93 SW 5 7 30.17 1022 10 16 0.00 0.00
1:53 am 01:53 Cloudy with Light Rain 64 17.8 63 17.2 96 96 SSW 5 7 30.17 1022 5 8 0.08 2.03
2:25 am 02:25 Mostly Cloudy with Light Rain 64 17.8 63 17.2 96 96 WSW 6 9 30.19 1022 6 10 0.08 2.03
2:43 am 02:43 Cloudy with Light Rain 63 17.2 59 15 87 87 W 12 19 30.18 1022 5 8 0.15 3.81
2:53 am 02:53 Cloudy with Light Rain 63 17.2 58 14.4 84 84 W 10 17 30.17 1022 10 16 0.15 3.81
3:53 am 03:53 Cloudy with Rain 61 16.1 59 15 93 93 Calm 30.20 1023 5 8 0.06 1.52
4:53 am 04:53 Mostly Cloudy 60 15.6 58 14.4 93 93 SW 3 6 30.17 1022 10 16 0.17 4.32
5:53 am 05:53 Clear 59 15 58 14.4 96 96 SSW 5 7 30.21 1023 10 16 0.00 0.00
6:26 am 06:26 Mostly Cloudy 59 15 58 14.4 96 96 SW 5 7 30.22 1024 10 16 0.00 0.00
6:34 am 06:34 Mostly Cloudy 60 15.6 58 14.4 93 93 VRB 3 6 30.22 1023 10 16 0.00 0.00
6:53 am 06:53 Cloudy 60 15.6 57 13.9 90 90 W 6 9 30.23 1024 10 16 0.00 0.00
7:30 am 07:30 Cloudy 60 15.6 57 13.9 90 90 VRB 7 11 30.25 1024 10 16 0.00 0.00
7:53 am 07:53 Cloudy 59 15 55 12.8 87 87 NNW 10 17 30.26 1025 10 16 0.00 0.00
8:06 am 08:06 Cloudy 59 15 55 12.8 87 87 NW 7 11 30.28 1026 10 16 0.00 0.00
8:26 am 08:26 Mostly Cloudy 58 14.4 52 11.1 81 81 NW 7 11 30.30 1026 10 16 0.00 0.00
8:53 am 08:53 Sunny 57 13.9 50 10 78 78 WNW 9 15 30.30 1026 10 16 0.00 0.00
9:53 am 09:53 Sunny 57 13.9 47 8.3 69 69 NNW 10 17 30.34 1027 10 16 0.00 0.00
10:53 am 10:53 Sunny 58 14.4 46 7.8 65 65 NW 13 20 30.36 1028 10 16 0.00 0.00
11:53 am 11:53 Sunny 60 15.6 45 7.2 58 58 NNW 12 19 30.36 1028 10 16 0.00 0.00
12:53 pm 12:53 Sunny 62 16.7 45 7.2 54 54 NW 15 24 30.33 1027 10 16 0.00 0.00
1:53 pm 13:53 Sunny 63 17.2 43 6.1 48 48 NW 14 22 30.32 1027 10 16 0.00 0.00
2:53 pm 14:53 Sunny 62 16.7 42 5.6 48 48 NW 14 22 30.34 1027 10 16 0.00 0.00
3:53 pm 15:53 Sunny 60 15.6 38 3.3 44 44 NW 14 22 30.35 1028 10 16 0.00 0.00
4:53 pm 16:53 Sunny 58 14.4 37 2.8 46 46 NNW 9 15 30.37 1029 10 16 0.00 0.00
5:53 pm 17:53 Clear 56 13.3 34 1.1 44 44 NNW 14 22 30.40 1030 10 16 0.00 0.00
6:53 pm 18:53 Clear 54 12.2 32 0 43 43 NNW 12 19 30.43 1030 10 16 0.00 0.00
7:53 pm 19:53 Clear 53 11.7 30 -1.1 41 41 NNW 13 20 30.44 1031 10 16 0.00 0.00
8:53 pm 20:53 Clear 52 11.1 30 -1.1 43 43 N 7 11 30.44 1031 10 16 0.00 0.00
9:53 pm 21:53 Clear 52 11.1 29 -1.7 41 41 NNW 8 13 30.45 1031 10 16 0.00 0.00
10:53 pm 22:53 Clear 51 10.6 28 -2.2 41 41 N 6 9 30.45 1031 10 16 0.00 0.00
11:53 pm 23:53 Clear 49 9.4 28 -2.2 44 44 N 5 7 30.45 1031 10 16 0.00 0.00

Powered by AerisWeather